TimeCST,TemperatureF,Dew PointF,Humidity,Sea Level PressureIn,VisibilityMPH,Wind Direction,Wind SpeedMPH,Gust SpeedMPH,PrecipitationIn,Events,Conditions,WindDirDegrees,DateUTC
12:00 AM,19.4,17.6,93,30.21,5.0,North,9.2,-,0.00,Snow,Light Snow,10,2013-12-06 06:00:00
12:14 AM,19.4,17.6,93,30.21,4.0,North,11.5,-,0.00,Snow,Light Snow,360,2013-12-06 06:14:00
12:28 AM,19.4,15.8,86,30.22,4.0,North,10.4,16.1,0.00,,Overcast,360,2013-12-06 06:28:00
12:53 AM,19.9,17.1,89,30.26,8.0,NNE,5.8,-,0.00,,Overcast,20,2013-12-06 06:53:00
1:29 AM,19.4,17.6,93,30.21,2.5,North,5.8,-,0.01,Snow,Light Snow,10,2013-12-06 07:29:00
1:39 AM,19.4,17.6,93,30.21,2.0,NNE,3.5,-,0.01,Snow,Light Snow,20,2013-12-06 07:39:00
1:46 AM,19.4,17.6,93,30.20,1.8,NNE,4.6,-,0.02,Snow,Light Snow,30,2013-12-06 07:46:00
1:53 AM,19.9,17.1,89,30.25,1.8,Variable,4.6,-,0.02,Snow,Light Snow,0,2013-12-06 07:53:00
2:00 AM,19.4,17.6,93,30.20,2.0,NNE,4.6,-,0.00,Snow,Light Snow,30,2013-12-06 08:00:00
2:06 AM,19.4,17.6,93,30.20,3.0,NNE,3.5,-,0.00,Snow,Light Snow,30,2013-12-06 08:06:00
2:20 AM,19.4,17.6,93,30.20,2.5,NE,3.5,-,0.00,Snow,Light Snow,40,2013-12-06 08:20:00
2:40 AM,19.4,17.6,93,30.20,3.0,Variable,3.5,-,0.01,Snow,Light Snow,0,2013-12-06 08:40:00
2:53 AM,19.9,17.1,89,30.25,4.0,Calm,Calm,-,0.01,Snow,Light Snow,0,2013-12-06 08:53:00
3:37 AM,19.4,15.8,86,30.20,2.5,Variable,5.8,-,0.00,Snow,Light Snow,0,2013-12-06 09:37:00
3:53 AM,19.9,17.1,89,30.26,2.0,North,5.8,-,0.01,Snow,Light Snow,10,2013-12-06 09:53:00
4:00 AM,19.4,15.8,86,30.22,2.5,NNE,5.8,-,0.00,Snow,Light Snow,20,2013-12-06 10:00:00
4:13 AM,19.4,17.6,93,30.20,1.8,NE,4.6,-,0.01,Snow,Light Snow,40,2013-12-06 10:13:00
4:28 AM,19.4,17.6,93,30.21,2.0,Variable,5.8,-,0.01,Snow,Light Snow,0,2013-12-06 10:28:00
4:41 AM,19.4,17.6,93,30.22,2.0,Variable,3.5,-,0.01,Snow,Light Snow,0,2013-12-06 10:41:00
4:53 AM,19.9,16.0,85,30.25,2.0,NNE,4.6,-,0.02,Snow,Light Snow,20,2013-12-06 10:53:00
5:07 AM,19.4,15.8,86,30.21,3.0,NNE,4.6,-,0.00,Snow,Light Snow,30,2013-12-06 11:07:00
5:38 AM,19.4,15.8,86,30.22,2.0,Variable,6.9,-,0.00,Snow,Light Snow,0,2013-12-06 11:38:00
5:46 AM,19.4,15.8,86,30.22,1.2,North,3.5,-,0.01,Snow,Light Snow,10,2013-12-06 11:46:00
5:53 AM,19.0,16.0,88,30.28,1.2,North,4.6,-,0.01,Snow,Light Snow,360,2013-12-06 11:53:00
6:02 AM,19.4,15.8,86,30.24,1.0,North,8.1,-,0.01,Snow,Light Snow,360,2013-12-06 12:02:00
6:13 AM,19.4,15.8,86,30.24,0.8,North,4.6,-,0.02,Snow,Light Snow,10,2013-12-06 12:13:00
6:25 AM,19.4,15.8,86,30.24,0.8,Variable,4.6,-,0.03,Snow,Light Snow,0,2013-12-06 12:25:00
6:33 AM,19.4,15.8,86,30.24,1.0,Variable,4.6,-,0.04,Snow,Light Snow,0,2013-12-06 12:33:00
6:50 AM,19.4,15.8,86,30.24,1.5,Variable,5.8,-,0.05,Snow,Light Snow,0,2013-12-06 12:50:00
6:53 AM,19.0,16.0,88,30.30,1.2,NE,8.1,-,0.05,Snow,Light Snow,50,2013-12-06 12:53:00
7:15 AM,19.4,15.8,86,30.25,0.8,NNE,4.6,-,0.02,Snow,Light Snow,30,2013-12-06 13:15:00
7:41 AM,19.4,15.8,86,30.25,1.0,NE,3.5,-,0.04,Snow,Light Snow,40,2013-12-06 13:41:00
7:47 AM,19.4,15.8,86,30.26,0.8,NE,4.6,-,0.04,Snow,Light Snow,50,2013-12-06 13:47:00
7:53 AM,19.0,16.0,88,30.32,0.8,NE,3.5,-,0.05,Snow,Light Snow,40,2013-12-06 13:53:00
8:34 AM,19.4,15.8,86,30.27,0.5,Calm,Calm,-,0.03,Fog-Snow,Snow,0,2013-12-06 14:34:00
8:51 AM,19.4,17.6,93,30.29,0.2,Calm,Calm,-,0.05,Fog-Snow,Heavy Snow,0,2013-12-06 14:51:00
8:53 AM,19.0,17.1,92,30.34,0.2,NE,4.6,-,0.05,Fog-Snow,Heavy Snow,50,2013-12-06 14:53:00
9:53 AM,19.0,16.0,88,30.38,0.2,NE,3.5,-,0.06,Fog-Snow,Snow,40,2013-12-06 15:53:00
10:53 AM,19.0,16.0,88,30.38,0.2,Calm,Calm,-,0.06,Fog-Snow,Heavy Snow,0,2013-12-06 16:53:00
11:53 AM,19.0,16.0,88,30.37,1.0,NNE,4.6,-,0.05,Snow,Light Snow,20,2013-12-06 17:53:00
12:53 PM,19.0,15.1,85,30.38,3.0,NNE,6.9,-,0.02,Snow,Light Snow,20,2013-12-06 18:53:00
1:53 PM,19.9,15.1,81,30.37,3.0,Variable,4.6,-,0.00,Snow,Light Snow,0,2013-12-06 19:53:00
2:53 PM,19.9,15.1,81,30.38,3.0,North,6.9,-,0.00,Snow,Light Snow,10,2013-12-06 20:53:00
3:53 PM,19.0,16.0,88,30.40,1.0,North,8.1,-,0.00,Snow,Light Snow,350,2013-12-06 21:53:00
4:53 PM,19.0,14.0,81,30.44,7.0,North,9.2,-,0.00,,Overcast,350,2013-12-06 22:53:00
5:53 PM,18.0,12.9,81,30.48,7.0,North,10.4,-,0.00,Snow,Light Snow,10,2013-12-06 23:53:00
6:53 PM,18.0,10.9,74,30.50,10.0,North,4.6,-,0.00,,Overcast,10,2013-12-07 00:53:00
7:53 PM,18.0,10.0,71,30.52,10.0,North,4.6,-,N/A,,Overcast,10,2013-12-07 01:53:00
8:53 PM,18.0,10.0,71,30.53,10.0,Variable,5.8,-,N/A,,Overcast,0,2013-12-07 02:53:00
9:53 PM,18.0,10.0,71,30.55,10.0,Variable,4.6,-,N/A,,Overcast,0,2013-12-07 03:53:00
10:53 PM,17.1,9.0,71,30.57,10.0,North,3.5,-,N/A,,Overcast,10,2013-12-07 04:53:00
11:53 PM,17.1,9.0,71,30.57,10.0,NE,3.5,-,N/A,,Overcast,40,2013-12-07 05:53:00